www.pogodaiklimat.ru

Погода и климат >> Архив погоды >> Иран >> Sirjan


ПОГОДА в Sirjan

  • Прогноз погоды в Sirjan
  • Монитор погоды в Sirjan
  • Климат города

АРХИВ ПОГОДЫ в Sirjan

Время (UTC), дата Ветер
(напр.,м/с)
 
Видим.   Явления Облачность Т
(С)
Тd
(С)
f
(%)
Тe
(С)
Тes
(С)
Комфортность P
(гПа)
Po
(гПа)
Тmin
(С)
Tmax
(С)
R
(мм)
R24
(мм)
S
(см)
12 11.12 штиль 0 10 км ясно +17.0 -17.6 8 +17 +19 1018.7 827.1
15 11.12 штиль 0 10 км ясно +8.0 -16.3 16 +8 +8 1022.2 827.0 +17.6
18 11.12 штиль 0 10 км ясно +2.9 -17.9 20 +3 +3 1019.7 827.2
21 11.12 штиль 0 10 км ясно +0.2 -19.4 21 0 0 1017.3 826.3
00 12.12 штиль 0 10 км ясно -4.0 -21.0 25 -4 -4 1017.8 826.9
03 12.12 штиль 0 10 км ясно -1.6 -19.4 24 -2 -2 1024.1 829.9 -4.2
06 12.12 С 5 10 км ясно +7.8 -14.2 19 +5 +8 1022.9 830.3
09 12.12 СЗ 8 10 км ясно +9.4 -14.7 17 +6 +8 1021.6 829.1
12 12.12 СЗ 6 10 км ясно +10.2 -15.2 15 +8 +8 1021.8 828.0
15 12.12 С 3 10 км ясно +4.8 -16.4 20 +2 +2 1025.0 829.7 +10.4
18 12.12 штиль 0 10 км ясно +0.6 -17.4 25 +1 +1 1024.5 830.6
21 12.12 штиль 0 10 км ясно -2.4 -17.5 30 -2 -2 1023.7 830.6
00 13.12 штиль 0 10 км ясно -4.4 -15.8 41 -5 -5 1024.1 829.8
03 13.12 штиль 0 10 км ясно -5.6 -18.0 37 -6 -6 1027.4 830.3 -6.0
06 13.12 ЮЗ 2 15 км ясно +2.8 -14.3 27 +1 +6 1026.1 830.5
09 13.12 З 5 15 км ясно +9.2 -13.7 18 +7 +11 1022.3 828.8
12 13.12 З 6 15 км ясно +11.6 -13.6 16 +9 +10 1020.1 826.9
15 13.12 З 3 10 км ясно +7.1 -15.0 19 +5 +5 1022.7 827.3 +11.8
18 13.12 штиль 0 10 км ясно 0.0 -17.9 25 0 0 1023.4 828.0
21 13.12 штиль 0 10 км ясно -2.2 -17.5 30 -2 -2 1022.1 828.0
00 14.12 штиль 0 10 км ясно -5.8 -19.3 34 -6 -6 1021.8 827.8
03 14.12 штиль 0 10 км ясно -8.4 -19.5 40 -9 -9 1025.4 828.6 -8.4
06 14.12 ЮВ 3 10 км ясно +4.4 -13.9 25 +2 +6 1025.0 830.1
09 14.12 штиль 0 10 км ясно +11.1 -13.6 16 +11 +22 опасность
простуды
1021.3 828.4
12 14.12 ЮЗ 3 10 км ясно +13.7 -13.1 14 +13 +14 1019.6 826.8
15 14.12 штиль 0 10 км ясно +5.9 -13.7 23 +6 +6 1023.9 827.1 +14.0
18 14.12 ЮВ 4 10 км ясно +5.6 -14.0 23 +3 +3 1019.8 827.6
21 14.12 ЮВ 5 10 км ясно +5.6 -13.7 23 +2 +2 1016.8 827.2
00 15.12 В 3 10 км ясно +4.0 -13.6 26 +1 +1 1016.4 827.2
03 15.12 ЮВ 4 10 км 6/0
[Ac trans]
+3.8 -13.1 28 0 0 1020.0 827.6 +3.6
06 15.12 ЮВ 5 10 км 6/1 1200 м
[Sc Ci sp]
+7.3 -10.8 26 +4 +6 1021.2 829.7
09 15.12 Ю 6 10 км 6/3 1350 м
[Sc Ci sp]
+12.1 -5.1 30 +10 +12 1017.6 828.3
12 15.12 В 3 10 км 8/4 1200 м
[Sc As trans]
+12.3 -3.1 34 +11 +12 1016.9 827.3
15 15.12 ЮЗ 4 10 км 8/4 1200 м
[Sc As trans]
+11.0 -0.4 45 +9 +9 1018.4 828.2 +12.4
18 15.12 В 2 10 км 6/3 1200 м
[Sc diur, vesp Ac As]
+8.6 -1.2 50 +7 +7 1019.7 829.6
21 15.12 В 4 10 км 9/3 1200 м
[Sc diur, vesp As op]
+7.9 +0.4 59 +5 +5 1018.2 829.6
00 16.12 С 2 7000 м слабый дождь 10/3 1200 м
[Sc As op]
+3.9 +2.9 93 +1 +1 1020.0 830.1 6
03 16.12 штиль 0 10 км в посл. час дождь 10/4 1200 м
[Sc As op]
+4.5 +3.5 93 +3 +3 1020.8 830.5 +3.6
06 16.12 ЮВ 3 10 км {дождь} 9/4 1200 м
[Sc diur, vesp As op]
+7.6 +4.9 83 +5 +6 1021.4 831.3 0.4
09 16.12 В 2 10 км 10/4 1200 м
[Sc diur, vesp As op]
+9.6 +4.1 69 +8 +9 1019.5 830.1
12 16.12 штиль 0 10 км 10/4 1200 м
[Sc diur, vesp As op]
+9.9 +1.7 57 +10 +10 1020.1 829.4
15 16.12 ЮВ 3 10 км 5/5 1200 м
[Sc diur, vesp]
+7.1 +3.2 76 +4 +4 1023.3 831.4 +10.3
18 16.12 штиль 0 8000 м слабый дождь 6/6 900 м
[Frnb]
+5.7 +3.7 87 +5 +5 1023.0 831.5 0.2
21 16.12 ЮВ 3 10 км 4/4 1200 м
[Sc diur, vesp]
+5.2 +3.3 88 +2 +2 1021.3 830.7
00 17.12 штиль 0 10 км ясно +4.8 +3.6 92 +4 +4 1021.4 830.7
03 17.12 штиль 0 8000 м {дождь} 10/10 1200 м
[Sc diur, vesp]
+4.5 +3.8 95 +3 +3 1023.6 831.6 +4.1
06 17.12 С 2 10 км в посл. час дождь 9/5 900 м
[Cu med, cong Ac As]
+5.6 +5.2 97 +3 +4 1024.7 832.5 3
09 17.12 Ю 2 10 км 6/6 900 м
[Cb calv]
+11.0 +5.2 67 +10 +13 1021.0 830.9
12 17.12 З 3 10 км 8/5 1050 м
[Cb calv Ci]
+10.8 +3.6 61 +9 +10 1019.5 829.4
15 17.12 С 2 10 км 6/4 1200 м
[Sc Cs]
+9.1 +2.9 65 +8 +8 1021.6 830.6 +12.0
18 17.12 штиль 0 10 км 8/4 1200 м
[Sc diur, vesp As op]
+7.4 +4.1 80 +7 +7 1022.4 831.2
21 17.12 штиль 0 10 км 8/5 1200 м
[Sc Cs]
+7.4 +4.1 80 +7 +7 1020.3 831.0
00 18.12 штиль 0 10 км ясно +2.6 +1.3 91 +1 +1 1022.3 831.0
03 18.12 штиль 0 10 км ясно +0.7 -0.1 94 -1 -1 1024.9 831.9 +0.4
06 18.12 штиль 0 10 км 1/1 1200 м
[Cu hum]
+7.8 +3.5 74 +7 +13 1023.4 832.5
09 18.12 ЮЗ 4 10 км 3/3 1200 м
[Cu hum]
+12.6 +3.3 53 +11 +15 1020.1 831.3

 

Местоположение метеостанции Sirjan (Иран): широта 29.47 долгота 55.72 высота над уровнем моря 1739 м.

В архиве по умолчанию представлена погода в Sirjan за последнюю неделю. Архивные данные за месяц целиком и за предыдущие месяцы, начиная с января 2011 года, Вы можете получить, выбрав интересующий диапазон дат из раскрывающегося списка и нажав кнопку "Ввод!".

Внимание! Время в таблицах - всемирное. Для получения местного времени необходимо прибавить поправку, которая в Sirjan равна 3.5 ч.

Смотрите также архив погоды в соседних городах и на ближайших метеорологических станциях:

Погода в Baft (Иран) (87 км)
Погода в Kerman (Иран) (149 км)
Погода в Fasa (Иран) (206 км)
Погода в Kahnuj (Иран) (255 км)
Погода в Bandarabbass (Иран) (258 км)
Погода в Bam (Иран) (263 км)
Погода в Yazd (Иран) (303 км)
Погода в Shiraz (Иран) (309 км)
Погода в Bandar Lengeh (Иран) (333 км)
Погода в Abadeh (Иран) (349 км)

Пояснения к столбцам:

Ветер - указаны скорость ветра в м/с - средняя за 10 мин, порывы в срок и между сроками (в фигурных скобках) и направление, откуда дует ветер: С - северный, СВ - северо-восточный, В - восточный, ЮВ - юго-восточный, Ю - южный, ЮЗ - юго-западный, З - западный, СЗ - северо-западный.
Видимость - горизонтальная дальность видимости в метрах или километрах. При видимости от 1 до 10 км при отсутствии осадков обычно наблюдается дымка, при ухудшении видимости до 1 км и менее - туман. В сухую погоду видимость может ухудшаться дымом, пылью или мглою.
Явления - указаны атмосферные явления, наблюдавшиеся в срок или в последний час перед сроком; фигурными скобками обозначены явления, наблюдавшиеся между сроками (за 1-3 часа до срока); квадратными скобками обозначены град или гололедные отложения с указанием их диаметра в мм.
Облачность - указаны через наклонную черту общая и нижняя облачность в баллах и высота нижней границы облаков в метрах; квадратными скобками обозначены формы облаков: Ci - перистые, Cs - перисто-слоистые, Cc - перисто-кучевые, Ac - высококучевые, As - высокослоистые, Sc - слоисто-кучевые, Ns - слоисто-дождевые, Cu - кучевые, Cb - кучево-дождевые. Подробнее классификацию облаков см. в Атласе облаков (PDF).
T - Температура воздуха - температура, измеренная на высоте 2 м над землей.
Td - Температура точки росы - температура, при понижении до которой содержащийся в воздухе водяной пар достигнет насыщения.
f - Относительная влажность воздуха - влажноcть воздуха, измеренная на высоте 2 м над землей.
Te - Эффективная температура - температура, которую ощущает одетый по сезону человек в тени. Характеристика душности погоды. При расчете учитывается влияние влажности воздуха и скорости ветра на теплоощущения человека.
Tes - Эффективная температура на солнце - температура, которую ощущает человек, с поправкой на солнечный нагрев. Характеристика знойности погоды. Зависит от высоты солнца над горизонтом, облачности и скорости ветра. Ночью, в пасмурную погоду, а также при ветре 12 м/с и более поправка равна нулю.
P - Атмосферное давление - приведенное к уровню моря атмосферное давление.
Po - Атмосферное давление - измеренное на уровне метеостанции атмосферное давление.
Tmin - Минимальная температура - минимум температуры воздуха на высоте 2 м над землей.
Tmax - Максимальная температура - максимум температуры воздуха на высоте 2 м над землей.
R - Количество осадков - Количество выпавших осадков за период времени, мм. При наведении курсора мыши на число - период времени, за который выпало указанное количество осадков.
R24 - Количество осадков - Количество выпавших осадков за 24 часа, мм.
S - Снежный покров - Высота снежного покрова, см. При наведении курсора мыши на число - состояние снежного покрова и степень покрытия местности в баллах.